Wind_Speed
36 36 39 41 39 37 40 42 46 45 46 41 39 43 47 48 48 48 47 48 49 49 50 51 53 54 56 56 56 56 57 58 59 61 64 67 69 72 73 73 73 73 73 72
39 38 42 44 40 39 40 42 44 46 45 41 43 46 47 48 49 49 49 49 50 51 51 52 54 55 56 56 56 57 57 58 60 62 64 67 70 72 72 72 72 73 72 71
44 42 45 45 40 40 42 42 43 45 44 43 44 46 47 48 49 49 49 50 51 52 53 53 55 56 56 56 57 57 58 59 60 63 65 68 69 71 71 71 71 71 71 70
49 48 51 45 43 42 43 43 43 44 44 44 45 46 46 47 49 49 50 50 51 53 54 54 55 56 56 56 57 58 59 60 61 64 66 68 69 70 70 70 70 70 69 68
51 54 55 49 44 45 47 46 44 46 46 45 46 47 47 48 49 50 50 52 53 54 55 55 56 56 57 57 58 59 60 61 63 65 67 68 69 70 70 69 68 68 68 66
54 57 58 51 49 49 51 50 48 49 49 49 49 49 49 50 51 52 53 54 55 56 56 57 57 58 59 59 59 61 62 63 64 66 67 68 68 68 68 67 66 66 66 65
56 59 59 52 52 53 53 52 52 53 53 53 53 53 53 54 55 56 57 58 59 59 59 58 59 59 60 60 61 63 64 65 66 67 67 67 67 67 66 65 64 64 64 64
58 61 59 55 56 56 56 57 57 57 57 58 58 58 58 59 59 59 60 60 61 61 61 61 61 61 61 62 63 65 66 66 66 66 66 66 65 64 64 63 61 61 62 62
60 60 58 59 59 59 60 62 62 62 63 63 64 63 63 63 62 62 62 63 63 63 62 62 62 63 63 64 65 65 65 65 65 65 65 64 63 62 61 60 59 59 59 60
58 57 57 58 59 61 63 65 65 65 65 65 65 65 65 64 64 64 63 64 64 63 62 62 62 63 63 63 63 63 63 63 63 63 63 61 60 59 58 57 57 56 57 57
53 52 54 55 57 59 61 62 63 63 63 64 64 63 64 63 63 63 62 62 62 62 61 61 61 60 60 60 59 59 59 59 60 60 60 58 57 56 55 55 54 54 54 55
47 45 49 50 51 53 54 55 55 55 55 55 56 57 57 56 56 56 57 57 58 58 58 57 56 55 54 55 56 57 57 57 57 57 57 56 55 54 53 53 52 51 52 52
40 41 43 43 45 46 47 48 49 49 50 50 50 51 50 50 50 51 51 52 52 52 52 51 52 52 53 54 55 55 55 55 55 55 54 54 53 52 51 50 49 49 49 50
36 37 37 37 38 38 40 41 42 44 45 47 48 48 47 46 46 46 47 47 47 48 48 49 50 51 51 52 52 52 52 53 54 54 53 52 52 50 48 47 47 47 47 47
35 35 34 34 34 35 36 37 38 39 41 42 43 44 44 44 45 45 45 46 46 47 49 50 50 50 50 50 50 50 51 51 52 52 52 51 50 48 46 45 44 44 44 45
34 34 34 33 34 34 35 36 37 38 39 40 41 42 43 44 44 45 46 47 48 48 48 48 48 48 48 48 48 49 50 51 51 50 50 49 47 45 43 42 41 42 42 42
37 36 36 36 36 36 37 38 39 40 41 42 43 43 45 46 47 48 49 50 50 49 49 49 49 49 49 50 51 51 52 52 51 49 49 47 45 43 40 39 39 40 40 40
40 40 40 40 40 40 41 42 43 44 45 46 47 48 50 51 52 52 52 52 52 52 52 52 52 53 53 54 54 53 52 52 50 48 46 44 42 40 38 37 36 37 37 37
44 44 45 45 46 47 47 47 48 49 50 51 52 53 54 55 56 56 56 55 55 55 55 56 57 57 57 56 55 53 52 51 49 46 44 42 40 38 36 34 34 35 35 35
47 48 48 49 50 51 52 53 54 55 56 57 57 58 58 58 59 59 59 58 59 60 60 61 61 60 60 58 56 54 52 50 47 44 43 41 38 36 33 32 32 32 33 32
48 49 50 51 52 53 55 56 58 58 58 59 59 60 60 60 60 61 61 61 62 63 63 63 63 62 61 59 56 54 51 48 45 43 41 39 36 33 30 29 29 30 30 30
49 49 51 52 54 54 55 57 58 59 59 59 60 61 61 61 61 62 63 64 65 64 64 63 61 60 58 56 54 51 49 46 43 41 39 36 34 30 28 27 27 27 28 27
52 52 54 55 56 56 57 58 59 60 60 60 61 61 61 61 62 63 63 64 64 63 61 60 59 58 56 53 50 48 45 43 40 38 36 34 31 27 25 24 24 25 25 24
52 53 55 56 57 58 58 58 59 58 58 59 59 60 60 61 61 63 64 63 62 61 60 59 58 55 53 49 46 44 42 40 37 35 32 30 27 23 22 22 22 22 22 21
52 53 54 55 56 57 57 56 55 55 55 56 56 57 59 61 61 61 61 61 60 59 57 54 52 50 47 45 42 39 36 35 33 31 28 26 23 21 20 19 19 19 19 18
51 52 53 54 54 54 54 53 52 52 52 52 53 55 57 58 58 59 59 58 56 53 51 49 47 45 42 39 36 33 31 30 28 27 25 22 20 19 18 17 17 16 16 16
50 50 51 51 51 51 50 50 49 49 50 52 53 54 54 54 54 55 54 53 50 48 46 44 41 38 34 31 27 26 26 25 24 23 22 20 18 17 16 15 14 13 13 13
Wind_Direction
285 285 285 284 285 286 286 287 287 290 290 293 288 281 281 285 288 291 294 296 298 300 302 304 306 308 311 314 316 317 319 321 324 326 329 331 333 334 336 337 339 340 342 343
284 283 282 283 288 290 288 288 288 289 290 293 287 285 285 286 288 290 291 293 295 297 299 301 304 307 310 312 314 316 318 320 322 325 327 329 331 333 335 336 338 340 341 343
284 283 281 283 290 288 288 288 289 289 290 288 286 286 286 287 288 289 290 291 293 294 296 299 303 306 309 311 313 314 316 318 320 323 325 327 330 331 333 335 337 339 341 343
284 284 282 288 289 290 289 288 290 290 288 286 285 285 286 286 286 287 288 289 290 292 295 298 302 304 307 309 311 312 314 317 318 320 323 325 328 330 331 333 336 338 340 342
283 284 285 288 292 291 290 288 290 290 287 285 283 283 283 283 284 285 286 288 289 292 295 298 301 303 305 307 309 311 313 315 316 318 320 323 326 328 329 331 334 336 339 342
281 283 285 291 292 291 290 290 289 287 286 284 283 282 281 281 282 283 285 287 289 292 295 298 300 302 303 305 307 309 311 313 314 316 318 320 323 325 327 329 332 335 338 341
280 282 284 289 289 289 289 289 287 286 286 285 284 283 283 283 283 284 286 288 291 293 296 298 299 301 302 304 305 307 309 310 311 314 316 319 321 324 325 327 330 333 336 339
280 281 285 287 285 285 285 284 284 283 283 283 283 283 283 283 284 286 287 289 291 292 295 296 298 299 301 302 303 305 306 308 309 311 314 317 320 322 324 325 328 331 335 338
279 282 284 284 284 284 283 282 282 281 282 281 281 282 283 284 285 286 288 289 290 292 293 295 296 297 299 300 301 303 304 306 308 310 313 315 318 320 322 323 326 330 333 337
282 284 284 284 284 283 282 282 282 282 283 283 283 283 284 284 285 286 287 288 289 291 292 293 294 296 297 298 299 301 303 305 308 310 312 314 317 320 321 321 324 328 332 336
286 288 286 283 282 281 281 282 283 284 284 284 285 285 286 286 286 287 287 288 289 291 292 293 294 296 297 298 299 301 304 306 307 309 311 314 316 319 319 320 322 326 331 334
288 289 287 288 286 283 282 282 283 285 287 288 288 289 289 289 290 290 290 290 291 292 292 294 294 296 297 299 300 302 304 306 307 309 311 313 315 317 317 318 320 324 329 333
289 290 291 293 292 289 286 285 286 287 289 291 292 294 295 295 294 293 294 293 293 293 294 294 295 297 298 300 301 303 305 306 308 309 311 312 314 316 315 316 318 322 327 331
290 293 296 297 298 296 294 292 292 292 292 293 295 296 296 297 298 298 297 296 296 295 295 295 297 298 299 301 303 304 305 307 308 309 310 312 313 314 314 314 316 320 325 329
291 293 296 298 299 300 299 299 299 298 296 296 297 298 297 297 297 298 298 298 298 298 297 297 298 299 300 301 303 304 306 307 309 309 310 311 312 313 312 312 314 318 323 328
288 291 294 296 298 299 300 300 301 301 301 300 301 301 300 299 299 298 299 299 299 299 299 299 299 299 300 301 302 304 305 306 308 309 309 310 311 311 311 310 313 316 321 326
285 287 289 292 295 297 298 298 298 299 299 300 301 301 301 300 299 299 299 300 300 300 300 299 298 298 299 299 300 302 303 304 306 307 308 309 309 310 308 308 311 314 319 324
282 284 286 288 290 293 294 295 296 298 299 300 301 301 302 302 302 301 300 300 300 300 299 299 298 298 298 298 298 299 300 302 303 305 306 307 308 307 306 306 309 312 317 323
278 280 283 285 287 289 291 293 295 297 298 299 300 300 301 302 302 301 301 300 300 299 298 298 298 298 298 297 297 297 297 298 299 301 303 304 304 304 303 303 306 310 315 321
278 279 282 284 287 289 291 293 295 296 297 298 299 300 300 301 301 301 301 301 300 298 298 297 296 296 296 295 294 294 294 294 295 296 298 299 300 300 299 299 303 307 313 319
280 282 284 286 287 289 292 293 295 296 297 298 299 300 301 301 301 301 301 301 301 300 299 298 297 295 294 292 291 290 289 289 289 290 293 294 295 294 293 295 299 304 311 317
282 283 285 286 288 290 292 294 295 296 297 298 299 300 301 302 303 303 303 303 302 301 301 300 298 296 294 292 290 287 284 283 284 284 286 287 287 287 287 291 295 301 308 315
283 284 286 288 289 290 292 293 295 296 297 299 300 301 302 304 305 305 305 305 304 303 302 301 299 297 294 291 289 286 282 278 277 278 278 278 279 279 281 285 291 298 305 314
285 286 288 289 291 292 293 294 296 297 299 301 302 303 304 305 306 307 307 307 305 304 303 301 299 297 294 290 286 282 278 274 271 271 269 268 269 270 273 278 286 294 303 312
287 288 289 290 292 293 295 296 298 299 301 302 304 305 306 308 309 309 308 308 306 304 303 302 300 297 293 289 285 279 272 266 262 260 258 256 256 258 264 271 281 291 301 311
290 291 292 293 294 296 297 299 300 302 303 304 306 307 309 310 310 311 311 310 308 306 304 302 301 298 294 289 283 273 262 254 251 249 247 244 243 247 255 265 275 286 298 310
293 294 295 295 297 298 299 301 302 304 305 306 308 310 311 312 312 313 313 312 310 309 308 306 303 300 296 290 280 265 250 241 238 236 233 230 231 237 247 258 269 282 296 310
Height
5804 5802 5797 5793 5793 5791 5785 5781 5776 5774 5771 5773 5770 5763 5759 5755 5750 5746 5743 5738 5732 5727 5721 5714 5707 5700 5693 5685 5676 5668 5659 5649 5639 5628 5617 5604 5592 5578 5563 5548 5533 5518 5502 5485
5794 5793 5787 5783 5784 5781 5777 5772 5768 5764 5761 5762 5755 5750 5746 5743 5739 5736 5731 5726 5721 5715 5709 5703 5697 5690 5682 5674 5666 5658 5649 5639 5629 5618 5607 5595 5583 5569 5555 5541 5526 5511 5495 5479
5781 5780 5775 5774 5777 5771 5767 5764 5758 5753 5752 5748 5743 5739 5734 5731 5727 5723 5719 5714 5709 5704 5698 5692 5686 5679 5671 5664 5656 5647 5638 5629 5619 5608 5597 5586 5574 5561 5547 5533 5519 5504 5489 5474
5767 5766 5762 5769 5765 5761 5756 5754 5749 5742 5739 5735 5731 5727 5723 5718 5714 5710 5706 5702 5697 5691 5686 5681 5674 5667 5661 5653 5645 5636 5627 5618 5608 5598 5587 5576 5565 5552 5539 5526 5512 5498 5483 5468
5754 5749 5747 5755 5754 5748 5742 5742 5738 5729 5726 5722 5718 5715 5712 5706 5701 5697 5693 5688 5684 5679 5674 5669 5662 5656 5649 5642 5633 5625 5616 5607 5597 5587 5577 5566 5555 5544 5531 5518 5505 5492 5478 5463
5742 5735 5734 5744 5740 5733 5728 5727 5724 5715 5711 5707 5703 5702 5699 5694 5689 5684 5680 5675 5671 5666 5662 5656 5650 5643 5636 5629 5621 5612 5604 5595 5586 5576 5566 5556 5546 5535 5523 5511 5498 5485 5472 5458
5729 5721 5721 5731 5726 5718 5714 5712 5707 5701 5697 5693 5689 5686 5684 5680 5675 5670 5666 5662 5657 5653 5648 5643 5636 5629 5623 5616 5608 5599 5592 5583 5574 5565 5556 5546 5536 5526 5515 5503 5491 5479 5466 5454
5715 5709 5711 5714 5708 5705 5700 5695 5690 5686 5682 5677 5673 5670 5667 5664 5660 5656 5652 5648 5643 5638 5634 5628 5621 5615 5609 5602 5594 5586 5579 5571 5562 5553 5545 5536 5526 5517 5507 5495 5484 5472 5460 5447
5699 5698 5698 5694 5691 5688 5682 5677 5673 5668 5665 5661 5656 5654 5651 5648 5645 5641 5636 5632 5627 5622 5618 5613 5606 5600 5594 5587 5580 5572 5565 5558 5550 5542 5534 5525 5517 5508 5498 5488 5477 5466 5454 5442
5683 5683 5683 5679 5674 5670 5665 5658 5655 5651 5648 5643 5639 5637 5634 5632 5629 5625 5621 5616 5611 5606 5602 5597 5591 5585 5579 5572 5565 5558 5552 5545 5538 5531 5523 5515 5507 5499 5490 5480 5470 5460 5448 5437
5668 5669 5665 5662 5658 5653 5647 5643 5639 5635 5631 5627 5624 5621 5617 5614 5612 5608 5604 5600 5595 5590 5586 5582 5576 5571 5565 5558 5552 5546 5539 5533 5526 5519 5512 5505 5498 5490 5481 5473 5463 5453 5443 5432
5653 5653 5645 5642 5638 5634 5629 5626 5623 5619 5616 5613 5608 5604 5601 5599 5595 5591 5588 5584 5580 5575 5571 5566 5561 5556 5551 5545 5539 5533 5528 5521 5514 5508 5501 5495 5488 5481 5473 5465 5456 5447 5437 5427
5639 5636 5631 5627 5622 5617 5613 5610 5608 5605 5601 5598 5594 5590 5587 5584 5581 5577 5573 5569 5565 5561 5556 5552 5548 5543 5538 5532 5527 5521 5515 5509 5503 5497 5491 5484 5478 5472 5465 5457 5449 5441 5432 5422
5628 5624 5620 5615 5610 5605 5601 5598 5595 5592 5588 5585 5581 5578 5574 5571 5568 5564 5560 5556 5552 5548 5544 5539 5535 5530 5524 5520 5514 5509 5503 5498 5492 5486 5480 5474 5469 5463 5456 5449 5442 5434 5426 5417
5618 5614 5610 5605 5601 5596 5592 5588 5584 5581 5578 5574 5570 5566 5563 5560 5557 5553 5549 5545 5540 5536 5531 5526 5522 5517 5512 5507 5502 5497 5491 5486 5481 5475 5470 5464 5459 5453 5448 5441 5435 5428 5420 5412
5609 5605 5600 5596 5592 5587 5583 5579 5575 5572 5568 5565 5561 5557 5553 5550 5546 5542 5537 5533 5528 5524 5519 5514 5510 5505 5500 5495 5490 5485 5479 5474 5469 5464 5459 5454 5449 5444 5439 5433 5428 5421 5414 5407
5598 5595 5591 5587 5582 5578 5574 5570 5566 5563 5559 5555 5551 5547 5544 5539 5535 5531 5526 5521 5516 5511 5506 5501 5497 5492 5487 5482 5477 5472 5467 5462 5458 5453 5448 5444 5439 5435 5430 5425 5420 5415 5408 5401
5587 5583 5580 5576 5572 5568 5564 5560 5556 5552 5548 5544 5540 5536 5531 5527 5522 5517 5513 5508 5503 5498 5492 5486 5482 5478 5473 5468 5463 5459 5454 5449 5446 5442 5438 5433 5430 5426 5422 5417 5413 5408 5402 5396
5574 5571 5567 5563 5559 5556 5552 5548 5544 5540 5536 5531 5527 5523 5518 5513 5508 5503 5498 5493 5487 5482 5477 5471 5466 5461 5456 5451 5447 5443 5439 5436 5432 5430 5426 5423 5420 5417 5413 5410 5406 5401 5396 5390
5560 5557 5553 5550 5546 5542 5539 5535 5531 5527 5522 5517 5513 5509 5504 5498 5493 5487 5482 5477 5470 5464 5459 5454 5448 5443 5438 5433 5430 5426 5423 5421 5419 5417 5415 5412 5410 5408 5405 5402 5399 5395 5390 5385
5546 5543 5540 5536 5533 5529 5525 5520 5516 5513 5508 5503 5498 5493 5488 5483 5477 5471 5465 5460 5454 5445 5439 5433 5427 5422 5417 5413 5410 5408 5406 5404 5404 5403 5402 5401 5400 5398 5396 5394 5391 5388 5385 5380
5532 5529 5526 5522 5519 5516 5512 5507 5502 5497 5493 5488 5482 5476 5471 5466 5460 5454 5447 5439 5433 5426 5419 5412 5405 5400 5395 5392 5390 5388 5387 5388 5388 5388 5389 5389 5389 5389 5388 5386 5384 5382 5379 5375
5517 5514 5511 5507 5504 5501 5498 5492 5487 5483 5477 5472 5466 5460 5454 5448 5441 5434 5429 5421 5412 5405 5398 5391 5385 5379 5375 5372 5370 5369 5369 5370 5372 5374 5376 5377 5378 5379 5379 5378 5377 5376 5373 5370
5502 5499 5495 5492 5488 5485 5482 5478 5473 5468 5462 5456 5450 5443 5436 5431 5425 5416 5408 5401 5393 5385 5379 5372 5365 5359 5355 5352 5351 5352 5353 5354 5357 5360 5363 5366 5368 5370 5370 5370 5370 5369 5367 5364
5486 5483 5480 5476 5473 5469 5466 5462 5458 5453 5447 5442 5435 5428 5420 5412 5406 5399 5391 5383 5374 5366 5359 5353 5346 5341 5337 5335 5334 5335 5336 5339 5343 5347 5351 5355 5358 5361 5362 5363 5364 5363 5362 5360
5471 5468 5465 5461 5457 5454 5450 5446 5443 5438 5432 5428 5422 5414 5406 5397 5389 5381 5373 5365 5356 5348 5341 5335 5330 5325 5322 5320 5319 5320 5323 5326 5331 5336 5341 5345 5349 5352 5355 5357 5358 5358 5357 5355
5456 5453 5450 5447 5443 5439 5435 5431 5428 5423 5418 5412 5407 5400 5392 5384 5376 5367 5358 5350 5341 5334 5327 5321 5316 5312 5309 5307 5308 5309 5312 5316 5322 5327 5332 5337 5342 5345 5348 5351 5352 5352 5352 5351